#timestamp,LO_Frequency,Hit,StdDev 
1588968775.4,286047046.5,P
1588968795.3,286047048.0,P
1588968815.1,286047050.4,P
1588968835.9,286047049.3,Y
1588968855.7,286047005.5,P
1588968875.5,286047005.7,N
1588968895.4,286047004.8,N
1588968915.2,286047004.6,N
1588968935.0,286047006.9,N
1588968936.0,286047006.9,N
1588968955.8,286047007.3,N
1588968975.6,286047006.1,N
1588968995.5,286047006.1,N
1588969015.3,286047008.5,N
1588969035.1,286047010.4,N
1588969055.9,286047010.3,N
1588969075.7,286047012.4,N
1588969095.6,286047011.4,N
1588969115.4,286047011.4,N
1588969135.2,286047013.3,N
1588969155.1,286047012.9,N
1588969156.0,286047012.9,N
1588969175.8,286047014.4,N
1588969195.6,286047016.7,N
1588969215.5,286047015.8,N
1588969235.3,286047018.5,N
1588969255.2,286047018.2,N
1588969275.9,286047020.0,N
1588969295.7,286047021.6,N
1588969315.6,286047021.7,N
1588969335.4,286047023.6,N
1588969355.2,286047020.5,N
1588969375.1,286047020.9,N
1588969376.0,286047020.9,N
1588969395.8,286047024.7,Y
1588969415.7,286047012.0,P
1588969435.5,286047011.8,P
1588969455.3,286047011.7,P
1588969475.2,286047013.4,Y
1588969495.0,286047002.6,P
1588969495.9,286047002.6,N
1588969515.8,286047004.3,N
1588969535.6,286047005.5,N
1588969555.4,286047006.3,N
1588969575.3,286047008.7,N
1588969595.1,286047007.7,N
1588969615.8,286047010.5,Y
1588969635.7,286047005.5,P
1588969655.5,286047007.5,P
1588969675.4,286047004.6,P
1588969695.2,286047006.5,Y
1588969715.0,286047004.3,P
1588969715.9,286047004.3,P
1588969735.8,286047001.7,N
1588969755.6,286047003.9,N
1588969775.5,286047005.5,Y
1588969795.3,286047001.6,P
1588969815.1,286046999.7,N
1588969835.9,286047001.0,N
1588969855.7,286046998.6,N
1588969875.5,286047000.2,N
1588969895.4,286047000.2,N
1588969915.2,286047001.0,N
1588969935.1,286047002.4,N
1588969936.0,286047002.4,N
1588969955.8,286047002.7,N
1588969975.6,286047002.2,N
1588969995.5,286047002.5,N
1588970015.3,286047001.5,N
1588970035.1,286047001.8,N
1588970055.9,286047001.3,N
1588970075.7,286047005.9,Y
1588970095.6,286047003.7,P
1588970115.4,286047004.7,P
1588970135.2,286047004.6,P
1588970155.1,286047005.6,Y
1588970156.0,286047005.6,P
1588970175.8,286047002.3,N
1588970195.7,286047004.4,P
1588970215.5,286047002.9,N
1588970235.3,286047005.4,Y
1588970255.2,286047000.2,P
1588970275.0,286047002.5,N
1588970275.9,286047002.5,N
1588970295.8,286047004.0,Y
1588970315.6,286046998.9,P
1588970335.4,286046998.7,N
1588970355.3,286047000.1,N
1588970375.1,286047001.5,N
1588970376.0,286047001.5,N
1588970395.8,286047003.2,N
1588970415.7,286047003.4,N
1588970435.5,286047003.1,N
1588970455.4,286047005.4,Y
1588970475.2,286047005.0,P
1588970495.0,286047007.4,P
1588970495.9,286047007.4,N
1588970515.8,286047009.1,Y
1588970535.6,286047004.2,P
1588970555.5,286047002.0,P
1588970575.3,286047002.1,N
1588970595.1,286047001.8,N
1588970615.9,286047001.7,N
1588970635.7,286047002.9,N
1588970655.5,286047005.8,Y
1588970675.4,286047001.8,P
1588970695.2,286047000.1,N
1588970715.1,286047000.0,N
1588970716.0,286047000.0,N
1588970735.8,286047004.3,Y
1588970755.6,286047001.7,P
1588970775.5,286047001.3,P
1588970795.3,286047005.8,P
1588970815.2,286047005.4,N
1588970835.9,286047005.6,N
1588970855.7,286047006.0,N
1588970875.6,286047005.4,N
1588970895.4,286047006.9,Y
1588970915.2,286047004.3,P
1588970935.1,286047003.4,P
1588970936.0,286047003.4,P
1588970955.8,286047005.9,Y
1588970975.7,286047002.8,P
1588970995.5,286047002.6,P
1588971015.3,286047004.3,P
1588971035.2,286047003.6,Y
1588971055.0,286047000.0,P
1588971055.9,286047000.0,N
1588971075.8,286047000.1,N
1588971095.6,286047000.2,N
1588971115.4,286047002.6,N
1588971135.3,286047002.2,N
1588971155.1,286047002.7,N
1588971205.9,286047004.0,E
1588971215.8,286046999.9,N
1588971235.6,286046998.1,P
1588971255.5,286047000.3,N
1588971275.3,286047000.6,N
1588971295.1,286047000.4,N
1588971315.9,286047001.4,N
1588971335.7,286047003.7,Y
1588971355.6,286047005.8,P
1588971375.4,286047004.8,N
1588971395.2,286047006.7,N
1588971415.1,286047006.7,N
1588971416.0,286047006.7,N
1588971435.8,286047007.4,Y
1588971455.7,286047001.9,P
1588971475.5,286047004.0,N
1588971495.3,286047004.2,P
1588971515